User: anonymous   Login
Location: Unspecified
(0.0000°N, 0.0000°E)
Time: 05:57:09
(UTC+00:00)
Language:

Snapshot - Orbit

View from above orbital plane
View from above orbital plane
View from above satellite
View from above satellite

Ground track
Ground track

The orbit data is extracted from the following two-line orbital elements,

1 01314U 65027A   17328.48925639 -.00000001  00000-0 -31707-4 0  9991
2 01314  90.3068 289.2068 0030856 159.1961 316.5986 12.91751486227751
Epoch (UTC): 24 November 2017 11:44:31
Eccentricity: 0.0030856
inclination: 90.3068°
perigee height: 1271 km
apogee height: 1318 km
right ascension of ascending node: 289.2068°
argument of perigee: 159.1961°
revolutions per day: 12.91751486
mean anomaly at epoch: 316.5986°
orbit number at epoch: 22775

The dashed part of the orbit path shows where the satellite is in the earth's shadow,  

DLR